SCP
0 0 0 0 0 0 0 0 0 0 0 0 0 0 0 0 0 0 0 0 0 0 0 0 0 0 0 0 0 0 0 0 0 0 0 0 0 0 0 0 0 0 0 0 0 0 0 0 0
0 0 0 0 0 0 0 0 0 0 0 0 0 0 0 0 0 0 0 0 0 0 0 0 0 0 0 0 0 0 0 0 0 0 0 0 0 0 0 0 0 0 0 0 0 0 0 0 0
0 0 0 0 0 0 0 0 0 0 0 0 0 0 0 0 0 0 0 0 0 0 0 0 0 0 0 0 0 0 0 0 0 0 0 0 0 0 0 0 0 0 0 0 0 0 0 0 0
0 0 0 0 0 0 0 0 0 0 0 0 0 0 0 0 0 0 0 0 0 0 0 0 0 0 0 0 0 0 0 0 0 0 0 0 0 0 0 0 0 0 0 0 0 0 0 0 0
0 0 0 0 0 0 0 0 0 0 0 0 0 0 0 0 0 0 0 0 0 0 0 0 0 0 0 0 0 0 0 0 0 0 0 0 0 0 0 0 0 0 0 0 0 0 0 0 0
0 0 0 0 0 0 0 0 0 0 0 0 0 0 0 0 0 0 0 0 0 0 0 0 0 0 0 0 0 0 0 0 0 0 0 0 0 0 0 0 0 0 0 0 0 0 0 0 0
0 0 0 0 0 0 0 0 0 0 0 0 0 0 0 0 0 0 0 0 0 0 0 0 0 0 0 0 0 0 0 0 0 0 0 0 0 0 0 0 0 0 0 0 0 0 0 0 0
0 0 0 0 0 0 0 0 0 0 0 0 0 0 0 0 0 0 0 0 0 0 0 0 0 0 0 0 0 0 0 0 0 0 0 0 0 0 0 0 0 0 0 0 0 0 0 0 0
0 0 0 0 0 0 0 0 0 0 0 0 0 0 0 0 0 0 0 0 0 0 0 0 0 0 0 0 0 0 0 0 0 0 0 0 0 0 0 0 0 0 0 0 0 0 0 0 0
0 0 0 0 0 0 0 0 0 0 0 0 0 0 0 0 0 0 0 0 0 0 0 0 0 0 0 0 0 0 0 0 0 0 0 0 0 0 0 0 0 0 0 0 0 0 0 0 0
0 0 0 0 0 0 0 0 0 0 0 0 0 0 0 0 0 0 0 0 0 0 0 0 0 0 0 0 0 0 0 0 0 0 0 0 0 0 0 0 0 0 0 0 0 0 0 0 0
0 0 0 0 0 0 0 0 0 0 0 0 0 0 0 0 0 0 0 0 0 0 0 0 0 0 0 0 0 0 0 0 0 0 0 0 0 0 0 0 0 0 0 0 0 0 0 0 0
0 0 0 0 0 0 0 0 0 0 0 0 0 0 0 0 0 0 0 0 0 0 0 0 0 0 0 0 0 0 0 0 0 0 0 0 0 0 0 0 0 0 0 0 0 0 0 0 0
0 0 0 0 0 0 0 0 0 0 0 0 0 0 0 0 0 0 0 0 0 0 0 0 0 0 0 0 0 0 0 0 0 0 0 0 0 0 0 0 0 0 0 0 0 0 0 0 0
0 0 0 0 0 0 0 0 0 0 0 0 0 0 0 0 0 0 0 0 0 0 0 0 0 0 0 0 0 0 0 0 0 0 0 0 0 0 0 0 0 0 0 0 0 0 0 0 0
0 0 0 0 0 0 0 0 0 0 0 0 0 0 0 0 0 0 0 0 0 0 0 0 0 0 0 0 0 0 0 0 0 0 0 0 0 0 0 0 0 0 0 0 0 0 0 0 0
0 0 0 0 0 0 0 0 0 0 0 0 0 0 0 0 0 0 0 0 0 0 0 0 0 0 0 0 0 0 0 0 0 0 0 0 0 0 0 0 0 0 0 0 0 0 0 0 0
0 0 0 0 0 0 0 0 0 0 0 0 0 0 0 0 0 0 0 0 0 0 0 0 0 0 0 0 0 0 0 0 0 0 0 0 0 0 0 0 0 0 0 0 0 0 0 0 0
0 0 0 0 0 0 0 0 0 0 0 0 0 0 0 0 0 0 0 0 0 0 0 0 0 0 0 0 0 0 0 0 0 0 0 0 0 0 0 0 0 0 0 0 0 0 0 0 0
0 0 0 0 0 0 0 0 0 0 0 0 0 0 0 0 0 0 0 0 0 0 0 0 0 0 0 0 0 0 0 0 0 0 0 0 0 0 0 0 0 0 0 0 0 0 0 0 0
0 0 0 0 0 0 0 0 0 0 0 0 0 0 0 0 0 0 0 0 0 0 0 0 0 0 0 0 0 0 0 0 0 0 0 0 0 0 0 0 0 0 0 0 0 0 0 0 0
0 0 0 0 0 0 0 0 0 0 0 0 0 0 0 0 0 0 0 0 0 0 0 0 0 0 0 0 0 0 0 0 0 0 0 0 0 0 0 0 0 0 0 0 0 0 0 0 0
0 0 0 0 0 0 0 0 0 0 0 0 0 0 0 0 0 0 0 0 0 0 0 0 0 1 0 0 0 0 0 0 0 0 0 0 0 0 0 0 0 0 0 0 0 0 0 0 0
0 0 0 0 0 0 0 0 0 0 0 0 0 0 0 0 0 0 0 0 0 0 0 0 0 1 1 0 0 0 0 0 0 0 0 0 0 0 0 0 0 0 0 0 0 0 0 0 0
0 0 0 0 0 0 0 0 0 0 0 0 0 0 0 0 0 0 0 0 0 0 0 0 0 1 1 1 0 0 0 0 0 0 0 0 0 0 0 0 0 0 0 0 0 0 0 0 0
0 0 0 0 0 0 0 0 0 0 0 0 0 0 0 0 0 0 0 0 0 0 0 0 1 1 1 1 0 0 0 0 0 0 0 0 0 0 0 0 0 0 0 0 0 0 0 0 0
0 0 0 0 0 0 0 0 0 0 0 0 0 0 0 0 0 0 0 0 0 0 0 0 1 1 1 1 1 0 0 0 0 0 0 0 0 0 0 0 0 0 0 0 0 0 0 0 0
0 0 0 0 0 0 0 0 0 0 0 0 0 0 0 0 0 0 0 0 0 0 0 1 1 1 1 1 1 1 0 0 0 0 0 0 0 0 0 0 0 0 0 0 0 0 0 0 0
0 0 0 0 0 0 0 0 0 0 0 0 0 0 0 0 0 0 0 0 0 0 1 1 1 1 1 1 1 1 1 1 0 0 0 0 0 0 0 0 0 0 0 0 0 0 0 0 0
0 0 0 0 0 0 0 0 0 0 0 0 0 0 0 0 0 0 0 1 1 1 1 1 1 1 1 1 1 1 1 1 1 0 0 0 0 0 0 0 0 0 0 0 0 0 0 0 0
Wind_Speed
11 9 6 5 5 2 8 8 7 6 6 7 6 4 5 7 7 7 5 5 5 6 8 9 7 8 9 9 9 10 10 10 10 10 9 9 9 9 8 8 9 9 8 9 10 10 9 9 9
7 6 6 5 2 5 9 8 9 9 6 4 4 4 5 7 7 6 5 5 6 6 7 8 8 8 9 9 9 9 9 10 9 9 9 8 8 8 8 8 8 8 8 8 8 9 9 9 8
6 6 5 2 4 7 8 8 8 7 6 3 4 5 6 6 6 5 6 7 7 7 7 10 8 8 9 9 9 9 9 9 9 8 8 8 8 7 7 7 7 7 7 7 7 8 8 8 7
5 5 4 1 8 8 7 6 5 5 6 4 4 6 7 6 4 6 8 7 7 8 7 10 7 8 9 9 9 9 8 8 8 8 8 7 7 7 7 6 6 6 6 6 7 7 7 7 6
5 4 1 5 8 7 6 6 4 4 5 5 5 7 8 6 7 9 8 7 7 8 7 10 9 9 9 10 9 9 8 8 8 7 7 6 6 6 6 5 5 5 6 6 6 6 6 6 6
5 3 1 6 8 6 5 4 4 5 5 5 5 7 8 6 7 8 8 7 7 7 7 10 11 10 9 9 9 8 8 7 7 7 6 6 6 6 5 5 5 5 5 5 5 5 5 6 6
4 2 4 6 6 6 5 4 4 5 5 5 4 6 8 8 8 8 8 7 7 7 7 7 9 10 10 9 9 8 7 7 6 6 6 6 6 5 5 4 4 4 4 4 5 5 5 6 6
4 2 3 5 5 6 4 3 4 4 6 5 2 4 7 9 9 8 8 7 7 6 6 6 7 7 7 9 10 8 7 6 6 6 5 5 6 6 6 5 5 4 4 4 5 4 4 5 6
5 2 5 6 5 5 3 3 4 3 5 4 4 5 8 12 10 9 8 7 7 6 6 6 6 6 6 6 9 9 9 7 6 6 6 4 3 4 4 5 4 4 4 4 4 4 4 5 7
4 2 6 5 4 3 3 2 3 4 5 5 7 8 10 11 10 9 8 8 7 7 6 5 5 5 6 5 6 4 4 5 3 3 3 2 2 2 2 5 5 4 4 5 4 4 6 7 5
2 2 4 3 3 3 3 3 3 3 4 4 7 10 11 11 9 8 8 7 7 7 6 6 5 4 4 4 4 3 2 3 3 4 2 2 1 2 1 2 4 4 5 4 5 5 3 2 1
2 1 2 1 2 1 2 4 4 2 4 5 6 10 11 10 9 8 7 6 6 6 6 5 5 4 3 3 3 3 2 2 2 3 2 2 1 1 1 1 1 1 1 1 1 1 1 1 2
3 1 1 0 1 1 2 3 4 4 4 6 8 9 10 9 9 8 7 7 7 7 6 6 5 5 4 3 2 3 2 2 3 2 2 1 1 1 1 1 1 0 1 2 1 1 1 1 2
1 1 1 1 2 2 3 3 4 5 6 7 8 9 9 8 8 8 8 8 7 6 6 6 6 5 4 3 2 2 2 2 1 2 2 1 1 1 0 1 0 0 0 1 0 1 1 1 1
2 3 3 3 2 2 2 3 4 6 7 8 8 8 8 7 7 7 8 8 8 7 6 6 6 6 5 3 3 2 2 2 1 1 2 1 0 1 0 0 0 1 1 1 1 1 1 1 1
5 5 3 4 2 2 5 3 6 7 7 7 8 8 8 7 7 7 7 7 7 7 7 6 5 6 5 3 2 2 2 2 1 1 1 1 0 0 0 0 0 1 0 0 1 1 1 1 1
6 3 0 3 3 2 4 1 5 7 7 7 7 8 7 7 7 7 7 7 7 7 7 7 6 5 5 4 3 3 2 1 1 1 1 1 1 0 0 0 1 1 0 0 1 1 0 0 0
2 3 1 0 1 3 4 1 4 7 7 7 8 8 8 8 8 8 8 8 7 7 7 7 7 6 5 4 4 3 2 2 1 1 1 1 1 1 1 1 0 1 0 0 0 0 0 1 0
5 5 3 1 0 4 3 2 2 6 8 8 8 8 8 8 8 8 8 8 8 8 7 7 6 6 5 4 4 3 3 2 2 1 1 1 1 1 1 1 1 1 1 1 1 1 2 1 0
6 7 4 1 0 4 4 3 2 5 8 8 8 9 9 9 9 9 9 9 9 8 8 8 7 6 6 4 3 2 2 2 2 1 1 1 1 2 2 1 1 1 0 1 1 1 1 1 1
7 6 4 3 2 5 5 4 4 6 7 7 8 8 9 9 10 10 10 9 9 9 9 7 7 7 5 5 4 3 3 2 2 2 2 2 2 1 0 1 1 1 1 1 1 1 2 1 1
6 4 5 5 7 3 5 4 4 5 7 8 9 9 9 9 9 10 10 10 9 9 8 8 7 7 6 6 5 5 3 3 2 2 2 2 2 2 2 2 1 2 1 1 2 1 1 2 2
4 3 5 6 8 7 5 6 3 6 6 6 7 8 8 9 9 10 10 9 9 8 8 8 8 7 6 5 5 4 4 3 3 3 3 3 3 2 2 2 2 2 2 1 1 0 2 2 2
4 5 5 7 8 8 5 6 3 3 3 4 6 7 7 8 9 9 9 9 8 8 8 8 8 7 7 6 6 5 4 3 3 3 3 3 3 2 3 2 2 2 1 1 2 2 2 2 2
9 9 6 6 7 4 2 6 3 2 1 1 3 6 6 7 8 10 10 9 8 8 8 8 9 8 7 7 6 6 5 5 5 4 4 3 2 2 2 2 2 2 1 2 1 1 1 1 2
9 10 7 6 5 3 4 5 0 3 2 1 3 5 6 6 7 9 9 9 8 8 8 8 8 8 8 7 6 5 5 4 3 3 3 3 2 1 1 2 3 2 2 2 1 1 1 1 2
8 9 8 8 7 7 3 3 2 3 3 3 3 5 5 6 7 8 9 9 8 8 8 8 7 7 7 7 6 5 5 4 2 2 3 2 2 2 2 2 2 2 2 1 2 1 1 1 1
8 7 6 8 6 7 5 5 2 2 2 3 4 4 5 6 7 8 8 8 8 8 8 7 7 7 6 6 6 5 5 5 4 3 2 1 2 1 2 2 2 2 2 2 2 2 1 1 1
8 8 7 7 6 7 5 1 4 1 1 2 3 4 4 5 7 8 7 7 7 8 8 8 7 7 6 6 5 4 5 5 5 4 3 3 2 3 3 2 2 2 2 2 2 2 2 2 2
9 9 9 8 6 7 8 1 6 2 2 2 2 4 3 4 6 7 7 7 7 7 8 7 7 7 6 5 5 5 4 4 4 4 4 3 3 3 3 3 3 3 3 2 2 3 2 2 3
Wind_Direction
182 186 204 229 231 135 64 58 54 61 57 50 44 37 41 32 23 61 87 111 115 119 118 124 117 123 126 125 122 119 119 119 118 121 124 124 125 127 129 135 135 131 130 134 139 142 143 144 146
177 187 223 238 279 72 68 58 57 53 68 74 62 61 66 64 56 85 108 114 125 122 123 117 121 127 125 121 120 119 118 116 117 119 122 123 125 126 129 132 131 131 134 137 142 146 145 145 148
181 224 257 260 47 50 61 58 63 68 70 69 68 51 50 61 75 91 105 126 129 120 120 114 131 129 125 121 119 115 114 116 119 120 119 122 123 128 128 126 129 133 137 139 142 146 146 145 146
212 224 234 73 64 56 54 57 66 79 73 59 75 81 73 55 68 99 115 130 123 120 121 114 130 132 129 124 121 120 119 118 119 119 116 117 119 119 123 125 130 137 140 142 144 142 144 148 154
238 253 170 84 71 64 60 61 51 55 64 72 82 91 86 74 90 109 121 124 120 116 111 110 117 127 129 126 124 125 122 118 118 119 118 117 117 118 122 124 133 139 141 145 145 145 147 149 149
241 246 58 71 75 75 71 69 68 70 84 88 95 97 89 104 110 117 121 122 114 110 108 109 120 123 126 126 125 125 121 119 119 117 118 117 116 117 122 133 139 142 142 147 148 154 157 151 153
292 353 48 60 71 79 66 64 58 72 86 78 86 99 111 119 117 122 123 122 116 113 111 112 123 130 133 130 127 123 119 117 115 113 116 121 122 122 123 128 131 135 139 141 144 155 164 165 164
295 288 64 63 58 69 83 78 58 54 76 89 88 104 122 128 133 132 127 124 119 114 112 116 119 121 132 132 130 126 123 120 115 116 121 129 138 140 138 151 137 139 140 139 142 148 155 168 171
260 265 54 45 40 63 94 94 84 83 106 107 84 78 110 131 141 141 137 132 128 123 122 122 122 123 127 124 129 139 141 137 143 139 140 164 153 135 148 105 121 141 145 147 147 154 162 175 175
257 18 47 30 28 53 90 89 113 140 132 131 121 113 128 143 152 153 148 145 141 138 135 127 126 130 132 127 130 137 134 126 126 100 118 126 104 94 88 118 136 147 155 165 161 176 194 211 182
262 2 36 36 39 55 102 113 134 157 133 143 145 144 148 154 159 159 154 151 144 140 137 138 133 130 127 126 130 126 127 128 134 120 118 104 114 115 110 118 144 160 175 176 163 193 196 176 136
248 321 329 5 39 82 100 112 116 102 71 109 138 149 156 164 164 164 159 149 141 141 144 141 136 131 128 124 132 140 133 131 127 124 138 124 106 83 72 63 86 153 150 145 179 168 143 141 155
228 347 350 58 131 124 133 121 101 100 108 126 140 154 162 165 164 163 160 157 155 152 151 144 141 139 145 146 167 135 137 139 130 118 117 103 115 99 78 69 47 49 104 152 160 146 138 148 137
326 298 216 169 140 145 153 134 134 114 136 143 152 160 164 165 166 164 168 166 158 154 154 146 152 150 154 157 156 141 145 132 120 126 110 110 86 74 76 96 56 45 53 60 108 120 138 143 117
242 232 180 157 160 153 198 149 128 127 146 151 157 160 156 162 169 174 172 171 162 157 155 155 158 152 155 162 161 158 162 144 137 120 130 173 171 115 251 77 184 48 54 88 118 112 146 157 151
221 225 184 138 163 187 249 100 115 147 162 157 154 155 160 163 172 170 170 172 164 158 155 162 159 151 154 159 168 161 146 140 144 152 148 156 161 181 242 16 68 14 349 129 130 184 161 142 176
212 239 110 132 169 213 251 86 121 158 173 166 163 161 166 166 174 172 170 166 165 162 160 161 161 160 159 160 165 162 151 155 160 160 155 138 195 220 224 6 26 277 286 292 248 106 264 206 71
254 274 268 8 150 247 247 241 153 170 186 178 174 171 174 175 177 173 170 161 159 158 160 163 165 163 165 165 164 163 158 166 163 168 142 171 177 186 240 177 177 270 252 260 15 115 149 274 252
288 274 277 14 40 272 265 268 182 179 195 191 187 184 183 180 171 170 170 168 165 165 166 166 166 164 171 171 179 172 168 170 167 175 150 188 190 187 241 280 151 251 195 230 213 212 181 210 195
251 259 263 183 185 277 287 279 195 185 200 200 196 192 187 180 172 171 175 175 173 171 172 172 174 173 180 165 168 169 170 182 176 175 143 207 201 214 197 208 220 204 180 187 205 207 246 226 212
245 264 286 293 268 235 263 234 180 181 196 198 201 195 188 183 178 173 178 179 176 175 178 176 176 176 178 172 171 163 168 189 181 183 177 185 191 195 229 180 242 220 227 162 232 228 222 243 233
240 261 270 260 258 251 254 272 168 173 186 194 199 195 189 182 179 174 175 178 178 177 177 176 175 176 174 180 183 189 194 197 188 200 175 174 178 194 197 205 209 243 246 170 231 186 250 246 239
265 256 256 263 263 266 238 266 163 168 194 191 194 193 190 181 177 172 172 174 175 174 174 171 170 174 178 187 179 198 206 203 194 194 172 196 178 193 206 207 213 222 238 216 248 238 250 240 256
220 220 220 241 251 251 245 261 249 169 196 184 175 181 187 180 175 171 169 167 171 170 171 167 169 175 180 189 190 199 200 208 209 208 194 203 193 197 199 200 207 216 217 199 214 232 221 251 266
220 237 233 231 233 238 184 250 271 55 88 216 173 168 175 178 178 172 169 169 172 172 171 168 169 175 182 190 196 198 203 206 208 220 205 223 216 200 182 201 204 207 195 205 210 202 249 221 226
226 244 252 264 272 246 188 243 208 77 104 151 159 154 164 173 174 170 169 172 173 173 171 170 171 175 181 186 190 196 205 214 205 216 230 222 230 225 177 195 197 199 210 208 200 210 209 199 223
226 237 261 269 271 272 233 225 205 162 174 167 159 154 162 168 169 168 168 169 168 170 170 169 168 172 180 183 183 190 200 214 212 211 224 220 219 196 185 210 202 194 206 230 236 220 250 240 239
252 241 240 253 263 268 244 232 225 190 189 167 165 160 162 168 170 168 166 166 165 166 163 164 166 172 179 183 189 183 187 190 198 212 198 208 210 204 198 212 206 201 211 222 242 224 211 241 245
209 218 233 249 264 273 272 250 74 123 165 177 167 160 162 169 168 166 164 162 162 159 160 165 165 170 177 182 185 186 186 186 186 188 194 196 206 195 191 198 209 211 219 225 229 244 225 237 237
231 229 227 238 240 257 278 270 99 99 115 150 143 137 150 162 162 161 159 156 160 161 162 164 167 172 174 172 174 180 182 183 187 187 191 194 197 204 199 200 205 214 216 224 228 242 238 241 241